[[{"header":{"parameterUnit":"m.s-1","parameterCategory":1,"la1":30.2991,"la2":30.254,"lo1":-89.0895,"lo2":-89.0444,"dy":0.0017,"dx":0.0017,"nx":28,"ny":28,"refTime":"2025-03-24T21:00:00:Z","depth":0,"parameterNumber":2,"parameterNumberName":"U-component_of_WINDS"},"data":[0,0,0,0,0,0,0,0,0,0,0,0,0,0,0,0,0,0,0,0,0,0,0,0,0,0,0,0,0,0,0,0,0,0,0,0,0,0,0,0,0,0,0,0,0,0,0,0,0,0,0,0,0,0,0,0,0,0,-0.1262,-0.1262,0,-0.1223,-0.1222,-0.1222,-0.1171,-0.117,-0.1169,-0.1169,-0.1128,-0.1127,-0.1127,0,0,0,0,0,0,0,0,0,0,0,0,0,-0.1294,-0.1294,-0.1262,-0.1262,-0.1261,-0.1223,-0.1222,-0.1222,-0.1171,-0.117,-0.1169,-0.1168,-0.1128,-0.1127,-0.1127,0,0,0,0,0,0,0,0,0,0,0,0,0,-0.127,-0.1294,-0.1262,-0.1231,-0.1228,-0.1223,-0.1222,-0.1222,-0.1171,-0.117,-0.1169,-0.1168,-0.1128,-0.1127,-0.1127,-0.1149,0,0,-0.1125,-0.1125,0,0,0,0,0,0,0,0,-0.1272,-0.1269,-0.1236,-0.1234,-0.123,-0.1201,-0.1219,-0.1197,-0.1172,-0.1193,-0.1168,-0.1167,-0.1153,-0.115,-0.1146,-0.1147,-0.1145,-0.1125,-0.1125,-0.1125,-0.1125,0,0,0,0,0,0,0,-0.1273,-0.127,-0.1247,-0.1236,-0.1232,-0.122,-0.1215,-0.1214,-0.118,-0.1191,-0.1187,-0.1183,-0.1151,-0.1146,-0.1144,-0.1144,-0.1125,-0.1125,-0.1125,-0.1124,-0.1162,-0.1164,0,0,0,0,0,0,-0.128,-0.1272,-0.1248,-0.1245,-0.1248,-0.122,-0.1215,-0.1211,-0.118,-0.1174,-0.1184,-0.1181,-0.1148,-0.1145,-0.1143,-0.1166,-0.1125,-0.1124,-0.1124,-0.1161,-0.1163,-0.1164,0,0,0,0,0,0,-0.128,-0.1278,-0.1249,-0.1258,-0.1253,-0.1221,-0.1217,-0.1211,-0.1206,-0.1175,-0.1169,-0.1186,-0.1146,-0.1143,-0.1148,-0.1164,-0.1124,-0.1124,-0.116,-0.1162,-0.1163,-0.1214,0,0,0,0,0,0,-0.1282,-0.1279,-0.1286,-0.1258,-0.1253,-0.1255,-0.1218,-0.1211,-0.1206,-0.1201,-0.1175,-0.1169,-0.1145,-0.1149,-0.1147,-0.1163,-0.1123,-0.1158,-0.1161,-0.1163,-0.121,-0.1217,-0.1223,0,0,0,0,0,-0.1283,-0.1302,-0.1287,-0.1284,-0.1262,-0.1256,-0.1253,-0.1225,-0.1207,-0.1215,-0.1195,-0.117,-0.1163,-0.115,-0.1148,-0.1163,-0.1157,-0.116,-0.1163,-0.1208,-0.1216,-0.1223,0,0,0,0,0,0,-0.1332,-0.1297,-0.1281,-0.1291,-0.1277,-0.1248,-0.1256,-0.1235,-0.1226,-0.1222,-0.1187,-0.1182,-0.1191,-0.1177,-0.1163,-0.1183,-0.1156,-0.1159,-0.1191,-0.1199,-0.1205,-0.1207,-0.1123,0,0,0,0,0,-0.1344,-0.1342,-0.1312,-0.1325,-0.1318,-0.1289,-0.1285,-0.1265,-0.1249,-0.1243,-0.1224,-0.1209,-0.1203,-0.12,-0.1194,-0.1209,-0.1202,-0.1218,-0.1225,-0.123,-0.1232,-0.124,-0.1246,-0.1174,-0.1174,-0.1174,0,0,-0.1369,-0.135,-0.1351,-0.1334,-0.1321,-0.132,-0.1284,-0.1285,-0.1284,-0.1243,-0.1246,-0.1232,-0.1213,-0.1223,-0.1227,-0.1212,-0.1251,-0.1234,-0.1238,-0.1237,-0.1243,-0.125,-0.1256,-0.1176,-0.1175,-0.1175,0,0,-0.1414,-0.1399,-0.1408,-0.1395,-0.1376,-0.1357,-0.1359,-0.1333,-0.1322,-0.1325,-0.1295,-0.1293,-0.1284,-0.1272,-0.1265,-0.1307,-0.1284,-0.1306,-0.1338,-0.1346,-0.1351,-0.1356,-0.1371,-0.1377,-0.1309,-0.1309,-0.1309,0,-0.1447,-0.1444,-0.1415,-0.1417,-0.1411,-0.1375,-0.1383,-0.1373,-0.1353,-0.1349,-0.1334,-0.1322,-0.1307,-0.1314,-0.1325,-0.132,-0.1322,-0.1308,-0.1353,-0.1358,-0.1362,-0.1375,-0.1381,-0.1312,-0.1311,-0.1311,-0.1311,0,-0.1486,-0.1484,-0.1494,-0.1475,-0.147,-0.1476,-0.1447,-0.1446,-0.1427,-0.1409,-0.1413,-0.1394,-0.1383,-0.1383,-0.1364,-0.1388,-0.138,-0.1359,-0.1331,-0.1372,-0.1384,-0.1389,-0.1316,-0.1315,-0.1314,-0.1313,0,0,-0.1559,-0.1525,-0.1529,-0.152,-0.1497,-0.1495,-0.15,-0.1489,-0.1488,-0.1476,-0.1479,-0.1473,-0.1454,-0.1446,-0.1426,-0.1433,-0.1467,-0.1412,-0.1411,-0.1422,-0.1492,-0.1507,-0.1514,-0.1452,-0.1453,-0.1454,-0.1494,0,-0.1598,-0.1603,-0.1578,-0.159,-0.1588,-0.1555,-0.1559,-0.1545,-0.153,-0.1526,-0.1509,-0.1505,-0.148,-0.1476,-0.1481,-0.1462,-0.1481,-0.1459,-0.1454,-0.1455,-0.1459,-0.152,-0.1536,-0.1574,-0.1498,-0.1499,-0.15,0,-0.1645,-0.1635,-0.1647,-0.1624,-0.1623,-0.1626,-0.1615,-0.1612,-0.1597,-0.1585,-0.1577,-0.1554,-0.1557,-0.1531,-0.1535,-0.1521,-0.1518,-0.1509,-0.1509,-0.1507,-0.1479,-0.1519,-0.1585,-0.1591,-0.1507,-0.1506,-0.1506,0,-0.1697,-0.1687,-0.1693,-0.1686,-0.166,-0.1663,-0.1652,-0.1635,-0.1631,-0.1621,-0.1618,-0.1609,-0.1604,-0.1598,-0.1573,-0.1557,-0.158,-0.1552,-0.157,-0.1571,-0.1575,-0.1575,-0.1641,-0.1575,-0.1575,-0.1575,-0.1574,0,-0.1743,-0.1752,-0.1715,-0.1719,-0.1728,-0.1699,-0.1709,-0.1694,-0.168,-0.168,-0.1651,-0.1653,-0.162,-0.1618,-0.1599,-0.1605,-0.1603,-0.1593,-0.1588,-0.1595,-0.1597,-0.1592,-0.1589,-0.1576,-0.1576,-0.1575,-0.1575,0,-0.1802,-0.1778,-0.1782,-0.1757,-0.1751,-0.1758,-0.1737,-0.1739,-0.1722,-0.1723,-0.1722,-0.1695,-0.169,-0.1666,-0.1656,-0.1643,-0.1656,-0.1646,-0.1661,-0.1657,-0.1676,-0.1675,-0.1741,-0.1748,-0.1678,-0.1679,-0.1679,0,-0.1832,-0.1838,-0.1814,-0.1812,-0.1802,-0.18,-0.1796,-0.1768,-0.1765,-0.1748,-0.1752,-0.1746,-0.1739,-0.1734,-0.1714,-0.1707,-0.1696,-0.1719,-0.1694,-0.1702,-0.1695,-0.1695,-0.1696,-0.1725,-0.1725,-0.1726,-0.1727,0,-0.189,-0.1878,-0.1872,-0.1863,-0.1859,-0.185,-0.184,-0.1841,-0.181,-0.1808,-0.1803,-0.1798,-0.1789,-0.1783,-0.1772,-0.1761,-0.1739,-0.1735,-0.1739,-0.1746,-0.1755,-0.175,-0.1675,-0.1733,-0.1733,-0.1732,-0.1732,-0.1732,-0.1935,-0.1939,-0.1922,-0.1917,-0.1907,-0.1898,-0.1899,-0.1883,-0.1878,-0.1868,-0.1853,-0.1851,-0.1835,-0.1819,-0.181,-0.1808,-0.1795,-0.18,-0.1802,-0.1803,-0.1807,-0.1756,-0.1806,-0.1806,-0.1805,-0.1805,-0.1805,0,-0.199,-0.1978,-0.1974,-0.1961,-0.1957,-0.1938,-0.1926,-0.1924,-0.1922,-0.191,-0.1905,-0.19,-0.1894,-0.1874,-0.1867,-0.1869,-0.1859,-0.1868,-0.1867,-0.1865,-0.1819,-0.1816,-0.1876,-0.1876,-0.1876,-0.1876,-0.1876,-0.1876,-0.2019,-0.2024,-0.201,-0.2011,-0.1998,-0.1996,-0.1991,-0.1983,-0.1973,-0.1969,-0.1965,-0.1952,-0.1936,-0.1928,-0.1922,-0.1916,-0.1915,-0.1927,-0.1918,-0.1875,-0.1868,-0.1862,-0.1859,-0.1927,-0.1927,-0.1964,-0.1964,-0.1965]},{"header":{"parameterUnit":"m.s-1","parameterCategory":1,"la1":30.2991,"la2":30.254,"lo1":-89.0895,"lo2":-89.0444,"dy":0.0017,"dx":0.0017,"nx":28,"ny":28,"refTime":"2025-03-24T21:00:00:Z","depth":0,"parameterNumber":3,"parameterNumberName":"V-component_of_WINDS"},"data":[0,0,0,0,0,0,0,0,0,0,0,0,0,0,0,0,0,0,0,0,0,0,0,0,0,0,0,0,0,0,0,0,0,0,0,0,0,0,0,0,0,0,0,0,0,0,0,0,0,0,0,0,0,0,0,0,0,0,2.4563,2.4564,0,2.4582,2.4582,2.4582,2.4608,2.4609,2.4609,2.461,2.4626,2.4626,2.4626,0,0,0,0,0,0,0,0,0,0,0,0,0,2.455,2.455,2.4563,2.4564,2.4564,2.4582,2.4582,2.4582,2.4608,2.4609,2.4609,2.461,2.4626,2.4626,2.4626,0,0,0,0,0,0,0,0,0,0,0,0,0,2.456,2.455,2.4563,2.4579,2.4581,2.4582,2.4582,2.4582,2.4608,2.4609,2.4609,2.461,2.4626,2.4626,2.4626,2.4613,0,0,2.4626,2.4626,0,0,0,0,0,0,0,0,2.456,2.4561,2.4576,2.4578,2.458,2.4593,2.4583,2.4592,2.4608,2.4598,2.461,2.461,2.4615,2.4616,2.4618,2.4614,2.4614,2.4626,2.4626,2.4626,2.4626,0,0,0,0,0,0,0,2.4559,2.456,2.4571,2.4577,2.4579,2.4585,2.4587,2.4585,2.4602,2.4599,2.46,2.4602,2.4616,2.4617,2.4618,2.4614,2.4626,2.4626,2.4626,2.4626,2.4601,2.46,0,0,0,0,0,0,2.4556,2.4559,2.457,2.4571,2.4571,2.4584,2.4587,2.4588,2.4602,2.4605,2.4602,2.4604,2.4617,2.4618,2.4619,2.4604,2.4626,2.4626,2.4626,2.4601,2.4601,2.46,0,0,0,0,0,0,2.4556,2.4557,2.4569,2.4566,2.4568,2.4584,2.4585,2.4588,2.459,2.4605,2.4608,2.4601,2.4618,2.4619,2.4614,2.4605,2.4626,2.4626,2.4602,2.4601,2.46,2.4574,0,0,0,0,0,0,2.4555,2.4557,2.4552,2.4566,2.4568,2.4565,2.4585,2.4588,2.459,2.4593,2.4604,2.4607,2.4618,2.4614,2.4614,2.4605,2.4626,2.4603,2.4602,2.4601,2.4576,2.4572,2.4569,0,0,0,0,0,2.4555,2.4543,2.4551,2.4552,2.4562,2.4564,2.4565,2.4579,2.459,2.4585,2.4594,2.4606,2.4606,2.4613,2.4614,2.4605,2.4604,2.4602,2.4601,2.4577,2.4573,2.4569,0,0,0,0,0,0,2.4527,2.4545,2.4554,2.4547,2.4554,2.4569,2.4563,2.4574,2.4578,2.458,2.4597,2.4599,2.4592,2.4598,2.4606,2.4593,2.4607,2.4605,2.4589,2.4585,2.4582,2.458,2.4626,0,0,0,0,0,2.452,2.452,2.4536,2.4528,2.4531,2.4546,2.4547,2.4558,2.4565,2.4568,2.4577,2.4583,2.4585,2.4585,2.4587,2.4577,2.458,2.4571,2.4568,2.4565,2.4563,2.4558,2.4554,2.4595,2.4595,2.4595,0,0,2.4505,2.4515,2.4514,2.4523,2.4529,2.4529,2.4548,2.4547,2.4547,2.4568,2.4564,2.4571,2.4579,2.4572,2.4569,2.4577,2.4553,2.4563,2.4561,2.456,2.4556,2.4552,2.4549,2.4594,2.4594,2.4594,0,0,2.4478,2.4486,2.448,2.4487,2.4497,2.4507,2.4506,2.4519,2.4525,2.4522,2.4538,2.4538,2.454,2.4545,2.4548,2.4524,2.4536,2.4525,2.4507,2.4502,2.4499,2.4496,2.4487,2.4484,2.4523,2.4523,2.4523,0,2.4458,2.4459,2.4476,2.4473,2.4477,2.4497,2.4491,2.4496,2.4506,2.4508,2.4516,2.452,2.4527,2.4521,2.4515,2.4517,2.4516,2.4523,2.4498,2.4495,2.4493,2.4485,2.4481,2.4521,2.4522,2.4522,2.4522,0,2.4434,2.4434,2.4428,2.4438,2.4441,2.4437,2.4453,2.4453,2.4464,2.4474,2.447,2.448,2.4484,2.4484,2.4494,2.4479,2.4484,2.4495,2.4509,2.4487,2.448,2.4477,2.4519,2.452,2.452,2.4521,0,0,2.4388,2.4409,2.4406,2.4411,2.4425,2.4425,2.4422,2.4427,2.4427,2.4434,2.4431,2.4433,2.4444,2.4447,2.4458,2.4454,2.4435,2.4466,2.4466,2.4459,2.4419,2.441,2.4407,2.4443,2.4442,2.4442,2.4419,0,2.4363,2.436,2.4375,2.4368,2.4368,2.4388,2.4386,2.4393,2.4402,2.4404,2.4414,2.4415,2.4429,2.4431,2.4428,2.4438,2.4427,2.444,2.444,2.444,2.4437,2.4403,2.4393,2.437,2.4416,2.4415,2.4415,0,2.4333,2.4339,2.4331,2.4346,2.4347,2.4344,2.4351,2.4352,2.4361,2.4368,2.4373,2.4386,2.4384,2.4398,2.4396,2.4404,2.4405,2.441,2.441,2.441,2.4425,2.4401,2.4364,2.436,2.4411,2.4411,2.4411,0,2.43,2.4306,2.4303,2.4306,2.4323,2.4321,2.4328,2.4338,2.434,2.4346,2.4348,2.4353,2.4355,2.4359,2.4373,2.4382,2.4368,2.4384,2.4373,2.4373,2.4368,2.4368,2.433,2.437,2.4371,2.4371,2.4371,0,2.427,2.4264,2.4288,2.4286,2.428,2.4298,2.4292,2.4301,2.431,2.431,2.4328,2.4327,2.4346,2.4347,2.4358,2.4353,2.4355,2.436,2.4362,2.4358,2.4357,2.4358,2.436,2.437,2.437,2.437,2.437,0,2.4231,2.4247,2.4244,2.4261,2.4265,2.426,2.4275,2.4273,2.4284,2.4283,2.4284,2.4301,2.4303,2.4318,2.4323,2.4331,2.4322,2.4329,2.4319,2.4321,2.4309,2.431,2.4269,2.4265,2.4309,2.4308,2.4308,0,2.421,2.4207,2.4224,2.4225,2.4231,2.4233,2.4236,2.4254,2.4257,2.4268,2.4265,2.4269,2.4273,2.4276,2.4288,2.4292,2.4298,2.4284,2.4299,2.4294,2.4297,2.4297,2.4297,2.428,2.428,2.4279,2.4279,0,2.4171,2.418,2.4184,2.4191,2.4194,2.42,2.4207,2.4207,2.4228,2.4229,2.4232,2.4236,2.4242,2.4246,2.4252,2.4259,2.4272,2.4274,2.4272,2.4266,2.4261,2.4263,2.431,2.4275,2.4275,2.4275,2.4276,2.4276,2.4141,2.4139,2.4151,2.4155,2.4162,2.4169,2.4168,2.418,2.4183,2.419,2.4201,2.4202,2.4212,2.4223,2.4229,2.423,2.4238,2.4234,2.4233,2.4232,2.4229,2.4262,2.4231,2.4231,2.4232,2.4232,2.4232,0,2.4103,2.4112,2.4115,2.4125,2.4128,2.4142,2.4151,2.4152,2.4154,2.4163,2.4167,2.4171,2.4175,2.4188,2.4193,2.4192,2.4198,2.4192,2.4192,2.4193,2.4222,2.4224,2.4187,2.4187,2.4187,2.4187,2.4187,2.4187,2.4083,2.408,2.409,2.4092,2.4101,2.4103,2.4107,2.4113,2.412,2.4124,2.4128,2.4137,2.4147,2.4154,2.4158,2.4162,2.4162,2.4155,2.416,2.4187,2.4191,2.4195,2.4197,2.4155,2.4155,2.4131,2.4131,2.4131]}]]